Вернуться в каталог

STARLINK-4534

АктивенСвязьVLEO
NORAD 53395·PAYLOAD·🇺🇸 United States

Запущен Aug 10, 2022 с Cape Canaveral Space Force Station

Loading…

Ближайшие Пролёты (ближайшие 24 часа)

TLE

СвежийSource: CelesTrak SupGP

Эпоха: Sep 14, 2026, 21:16 UTC

1 53395C 22097H   26257.88659722 -.00043892  00000+0 -14110-2 0  2577
2 53395  53.1574 345.0342 0001367  79.3065 310.3826 15.31733490    10

Отслеживайте STARLINK-4534 в реальном времени с AllMySat

Download on the App Store